EUTELSAT W4 
1 26369U 00028A   03049.96195201  .00000150  00000-0  00000+0 0  3534
2 26369   0.0345 349.9386 0003063 332.0141 208.9102  1.00271808 10053
GORIZONT 33 
1 26372U 00029A   03049.44902190 -.00000249  00000-0  00000-0 0  8407
2 26372   0.8651  84.9008 0001484 271.4634  97.9927  1.00278012 10000
EXPRESS 3A 
1 26378U 00031A   03049.78594020 -.00000094  00000-0  10000-3 0  8202
2 26378   0.0551 126.0711 0001284 175.3972 118.7466  1.00271606  9720
FENGYUN 2B 
1 26382U 00032A   03048.80767553 -.00000334  00000-0  00000-0 0  7979
2 26382   0.5715 287.6292 0001330 213.2098  41.6928  1.00276992  9701
TDRS 8 
1 26388U 00034A   03050.40063421  .00000096  00000-0  00000+0 0  5857
2 26388   4.8342 281.2432 0003331  22.5249 178.5823  1.00276797  9772
COSMOS 2371 
1 26394U 00036A   03049.98988391 -.00000138  00000-0  00000+0 0  7837
2 26394   0.8022  89.9019 0002742 298.3645 196.3623  1.00269326  9611
ECHOSTAR 6 
1 26402U 00038A   03050.22164559 -.00000061  00000-0  10000-3 0  4376
2 26402   0.0305 296.3312 0002519  21.2905 160.8128  1.00271936  9549
PAS 9 
1 26451U 00043A   03047.26727304 -.00000286  00000-0  00000-0 0  3980
2 26451   0.0408 103.4772 0000465 188.0624 252.4403  1.00267841  9390
BRAZILSAT B4
1 26469U 00046A   03047.50830594 -.00000169  00000-0  10000-3 0  5587
2 26469   0.0423 227.0525 0001541  98.6569 271.3032  1.00269670  9182
NILESAT 102 
1 26470U 00046B   03050.62978940 -.00000064  00000-0  10000-3 0  3452
2 26470   0.0174 194.9984 0005145 114.1539  59.6736  1.00271039  9228
RADUGA 1-5 
1 26477U 00049A   03049.77414556  .00000118  00000-0  10000-3 0  6917
2 26477   0.6427  92.3752 0000486 293.7924  89.3329  1.00265559  9061
EUTELSAT W1 
1 26487U 00052A   03049.87196976  .00000063  00000-0  10000-3 0  3574
2 26487   0.0160 269.8498 0003911  57.9999 144.4206  1.00274574  9026
ASTRA 2B 
1 26494U 00054A   03049.00000000  .00000146  00000-0  00000+0 0  2555
2 26494   0.0178 354.5658 0005000 302.8402 238.2911  1.00276704  8914
GE 7 
1 26495U 00054B   03049.50721697  .00000091  00000-0  10000-3 0  3985
2 26495   0.0483 273.6930 0003301  51.9783 227.9898  1.00274905  8925
GE 1A 
1 26554U 00059A   03048.89997956 -.00000348  00000-0  00000+0 0  4937
2 26554   0.0073 159.2607 0001342 208.1499 212.2033  1.00268674  8765
NSAT 110 
1 26559U 00060A   03050.33639826 -.00000356  00000-0  00000+0 0  4282
2 26559   0.0539 277.5305 0000740  68.5080  33.9711  1.00269928  8710
THURAYA 1 
1 26578U 00066A   03047.86363586  .00000134  00000-0  10000-3 0  4514
2 26578   4.8580 325.9345 0004272 342.5883 192.8528  1.00274887  8611
GE 6 
1 26580U 00067A   03048.32953972 -.00000262  00000-0  10000-3 0  3965
2 26580   0.0438 295.3803 0002151  66.1865 191.9318  1.00270923  8542
EUROPESTAR F
1 26590U 00068A   03042.90951184  .00000145  00000-0  10000-3 0  3709
2 26590   0.0411 259.1399 0004479  70.3033 184.5050  1.00275606  8422
BEIDOU 1 
1 26599U 00069A   03050.65205705 -.00000289  00000-0  00000+0 0  7452
2 26599   0.0727 214.8693 0000113 255.8459  53.0103  1.00261524  8534
PAS 1R 
1 26608U 00072A   03047.01249087 -.00000274  00000-0  10000-3 0  3987
2 26608   0.0083 252.9985 0002113 127.8960  84.1206  1.00269660  8307
ANIK F1 
1 26624U 00076A   03047.53451113 -.00000076  00000-0  00000-0 0  4304
2 26624   0.0065 173.2123 0000061 210.9993 207.0145  1.00272390  8283
ASTRA 2D 
1 26638U 00081A   03049.00000000  .00000145  00000-0  10000-3 0  2302
2 26638   0.0340 271.3776 0004463 313.6080 310.7234  1.00269938  8012
GE 8 
1 26639U 00081B   03050.44385169  .00000099  00000-0  10000-3 0  3999
2 26639   0.0707 274.8343 0003514  40.6890 214.2523  1.00272593  8009
BEIDOU 1B 
1 26643U 00082A   03048.91840456 -.00000143  00000-0  00000+0 0  6381
2 26643   0.1192 108.6626 0003873 234.1333 215.5792  1.00271501  7965
TURKSAT-2A 
1 26666U 01002A   03045.88295692  .00000148  00000-0  10000-3 0  2710
2 26666   0.0233 165.5889 0008465 154.7679 183.9963  1.00277479  7698
SICRAL 1 
1 26694U 01005A   03046.86653737  .00000105  00000-0  10000-3 0  3030
2 26694   0.0580 108.7900 0004870 259.3177 105.4801  1.00273292  7462
SKYNET 4F 
1 26695U 01005B   03049.87776038  .00000033  00000-0  10000-3 0  3349
2 26695   2.3801 308.3116 0002463 354.7175 167.2840  1.00272066  7462
EUROBIRD 
1 26719U 01011A   03049.94812669  .00000145  00000-0  10000-3 0  3009
2 26719   0.0048 217.1978 0002210  74.7834 226.3092  1.00271818  7168
B-SAT 2A 
1 26720U 01011B   03047.75446700 -.00000352  00000-0  00000-0 0  2980
2 26720   0.0649 269.6608 0003664  48.0571 210.0053  1.00267117  7136
XM-2 
1 26724U 01012A   03050.47561111 -.00000030  00000-0  00000+0 0  4346
2 26724   0.0167 295.3675 0000177 243.6923  26.1222  1.00272620  7134
EKRAN 21 
1 26736U 01014A   03049.23664003 -.00000303  00000-0  00000-0 0  5847
2 26736   0.8153 199.7404 0001718 170.0242 322.3050  1.00280317  6913
XM-1 
1 26761U 01018A   03047.39491353 -.00000206  00000-0  10000-3 0  2775
2 26761   0.0089 224.7269 0000426 204.5334 133.7618  1.00271212  6580
PAS 10 
1 26766U 01019A   03047.71061333 -.00000026  00000-0  10000-3 0  2307
2 26766   0.0177 278.8743 0001436  28.9354 162.7460  1.00271879  6487
INTELSAT 901
1 26824U 01024A   03047.94273728 -.00000143  00000-0  00000-0 0  2986
2 26824   0.0172 116.0190 0003054 204.2045 147.6485  1.00271490  6231
ARTEMIS 
1 26863U 01029A   03049.92970080  .00000125  00000-0  00000+0 0  4945
2 26863   1.5885 112.3518 0001160 219.7599 172.2483  1.00279978  6988
GOES 12 
1 26871U 01031A   03050.45925469 -.00000174  00000-0  10000-3 0  8267
2 26871   0.3224 276.7505 0003335   8.5884 294.7909  1.00361482  5848
COSMOS 2379 
1 26892U 01037A   03049.80143353 -.00000186  00000-0  00000+0 0  4508
2 26892   1.0373 289.9444 0002560 102.6910  20.3303  1.00273028  5442
INTELSAT 902
1 26900U 01039A   03047.66497789  .00000030  00000-0  10000-3 0  2383
2 26900   0.0155 137.1220 0002488 181.1598 129.3306  1.00274055  5408
ATLANTIC BIR
1 26927U 01042A   03048.80638341 -.00000070  00000-0  00000-0 0  1766
2 26927   0.0481 111.6697 0003924 202.6268 115.2839  1.00273202  5153
RADUGA 1-6 
1 26936U 01045A   03049.99525859 -.00000189  00000-0  10000-3 0  3991
2 26936   0.3232 245.2279 0002022 141.6947 205.0510  1.00267172  5034
DIRECTV 4S 
1 26985U 01052A   03050.74478309 -.00000118  00000-0  00000+0 0  1697
2 26985   0.0274 107.8975 0001226 262.7783 305.5052  1.00269308  4573
INSAT 3C 
1 27298U 02002A   03047.71255682 -.00000080  00000-0  00000-0 0  2219
2 27298   0.0499 123.9871 0002269  92.7035 260.1196  1.00271954  3926
ECHOSTAR 7 
1 27378U 02006A   03050.68878200 -.00000005  00000-0  10000-3 0  1837
2 27378   0.0712 286.3338 0001854  35.1898 316.7265  1.00270805  3640
INTELSAT 904
1 27380U 02007A   03049.96971845  .00000043  00000-0  10000-3 0  1526
2 27380   0.0062 198.2230 0003285 129.5554 229.8230  1.00274187  3676
TDRS 9 
1 27389U 02011A   03049.52111168  .00000125  00000-0  00000+0 0  2242
2 27389   8.1144 286.8988 0008070  52.9646 205.9411  1.00271316  5003
JCSAT 8 
1 27399U 02015A   03049.53441394 -.00000170  00000-0  10000-3 0  1947
2 27399   0.0116 122.0449 0001917 208.2151 164.1940  1.00270960  3338
ASTRA 3A 
1 27400U 02015B   03049.86223954  .00000132  00000-0  10000-3 0  1673
2 27400   0.0729 255.0498 0001816  85.3499 141.8578  1.00270791  3341
INTELSAT 903
1 27403U 02016A   03050.05505883 -.00000243  00000-0  10000-3 0  2040
2 27403   0.0381 100.6390 0002468 200.4891 192.7829  1.00271157  3334
NSS 7 
1 27414U 02019A   03045.68483633 -.00000166  00000-0  00000+0 0  1673
2 27414   0.0340  70.9415 0001999 242.2510  55.5947  1.00271250  3137
DIRECTV 5 
1 27426U 02023A   03050.18765627 -.00000003  00000-0  10000-3 0  1415
2 27426   0.0510 287.7344 0002647  25.8451 143.4974  1.00272085  2917
INTELSAT 905
1 27438U 02027A   03047.98114006 -.00000187  00000-0  00000-0 0  1368
2 27438   0.0112  47.4560 0002322 288.9699 138.8120  1.00271500  2636
EXPRESS 4A 
1 27441U 02029A   03049.81602389  .00000146  00000-0  10000-3 0  2363
2 27441   0.0288 100.6970 0002829 177.9461 203.4412  1.00269829  2552
GALAXY 3C 
1 27445U 02030A   03048.32776137 -.00000154  00000-0  00000+0 0  1934
2 27445   0.0328 291.2767 0000322  87.2683 151.2584  1.00271106  2525
STELLAT 5 
1 27460U 02035A   03048.88560756 -.00000046  00000-0  10000-3 0  1705
2 27460   0.0546 115.5115 0001798 230.5086 115.2505  1.00273371  2313
NSTAR 3 
1 27461U 02035B   03047.74502094 -.00000309  00000-0  00000-0 0  1440
2 27461   0.0167  46.2713 0002267 273.6480 230.5277  1.00270492  2302
HOT BIRD 6 
1 27499U 02038A   03047.86842035  .00000084  00000-0  10000-3 0   687
2 27499   0.0734 296.2656 0009015  74.9399 100.7717  1.00273159  1810
ECHOSTAR-8 
1 27501U 02039A   03049.23057212 -.00000061  00000-0  00000+0 0  1200
2 27501   0.0145 336.3940 0003393 356.5547 147.8028  1.00271563  1857
ATLANTIC BIR
1 27508U 02040A   03050.64595933 -.00000105  00000-0  00000+0 0  1279
2 27508   0.0490 117.6703 0001455  64.9181 186.6928  1.00273490  1845
MSG-1 
1 27509U 02040B   03046.89921297 -.00000087  00000-0  00000+0 0  1143
2 27509   1.6753 302.6443 0001119  96.7333  59.2029  1.00272388  1809
INTELSAT 906
1 27513U 02041A   03049.94030317  .00000009  00000-0  00000+0 0  1066
2 27513   0.0145  73.3207 0007967 291.3309 186.4409  1.00274744  1707
DRTS 
1 27516U 02042B   03049.96467794 -.00000239  00000-0  00000+0 0  1050
2 27516   0.0769 269.9222 0004975 300.3391  16.2185  1.00268183  1677
METSAT 1 
1 27525U 02043A   03046.69372512 -.00000077  00000-0  00000-0 0   961
2 27525   0.1185 259.2276 0007967   6.1771 203.5735  1.00272227  1607
